Flag for U.S.A. Weather past 2 weeks in Carson City, Nevada, U.S.A.

Now
87 °F

Scattered clouds.


Feels Like: 84 °F
Forecast: 62 / 94 °F
Wind: No wind

Location: Reno Tahoe International Airport

Current Time: Jul 2, 2015 at 12:03:40 PM

Latest Report: Jul 2, 2015 at 10:55 AM


Visibility: 10 mi

Pressure: 29.91 "Hg

Humidity: 26%

Dew point: 48 °F

Location of Carson CityLocation

Historic Weather in Carson City — Graph

°F

Carson City temperature yesterday

Maximum temperature yesterday: 100 °F (at 3:55 PM)
Minimum temperature yesterday: 70 °F (at 5:55 AM)
Average temperature yesterday: 83 °F

Past Weeks' High & Low Weather Summary

 TemperatureHumidityPressure
High100 °F (Jun 27, 2:55 PM)63% (Jul 1, 2:55 AM)30.02 "Hg (Jul 1, 2:55 AM)
Low52 °F (Jun 22, 5:55 AM)5% (Jun 19, 1:55 PM)29.78 "Hg (Jun 24, 5:55 PM)
Average80 °F23%29.90 "Hg
* Reported Jun 17 10:55 AM — Jul 2 10:55 AM, Carson City, Weather by CustomWeather, © 2015

Note: Actual official high and low records may vary slightly from our data, if they occured in-between our weather recording intervals... More about our weather records

Advertising

Carson City weather history for previous 24 hours

 ConditionsComfort  
Time TempWeatherWind HumidityBarometerVisibility
10:55 AM
Thu, Jul 2
87 °FScattered clouds.No wind26%29.91 "Hg10 mi
9:55 AM86 °FScattered clouds.No wind27%29.93 "Hg10 mi
8:55 AM82 °FScattered clouds.No wind32%29.95 "Hg10 mi
7:55 AM76 °FOvercast.No wind40%29.96 "Hg10 mi
6:55 AM71 °FPartly sunny.6 mph49%29.96 "Hg10 mi
5:55 AM71 °FPartly cloudy.6 mph47%29.94 "Hg10 mi
4:55 AM72 °FPartly cloudy.No wind44%29.92 "Hg10 mi
3:55 AM74 °FPassing clouds.6 mph38%29.90 "Hg10 mi
2:55 AM75 °FPassing clouds.7 mph40%29.89 "Hg10 mi
1:55 AM78 °FPassing clouds.6 mph39%29.90 "Hg10 mi
12:55 AM79 °FPartly cloudy.8 mph38%29.92 "Hg10 mi
11:55 PM
Wed, Jul 1
79 °FPartly cloudy.12 mph38%29.93 "Hg10 mi
10:55 PM84 °FPassing clouds.9 mph25%29.92 "Hg10 mi
9:55 PM86 °FPassing clouds.8 mph24%29.91 "Hg10 mi
8:55 PM88 °FBroken clouds.9 mph25%29.88 "Hg10 mi
7:55 PM89 °FBroken clouds.16 mph24%29.87 "Hg10 mi
6:55 PM91 °FBroken clouds.14 mph25%29.86 "Hg10 mi
5:55 PM93 °FBroken clouds.16 mph25%29.84 "Hg10 mi
4:55 PM96 °FBroken clouds.21 mph23%29.84 "Hg10 mi
3:55 PM100 °FBroken clouds.15 mph21%29.83 "Hg10 mi
2:55 PM98 °FBroken clouds.5 mph17%29.86 "Hg10 mi
1:55 PM95 °FMostly cloudy.3 mph18%29.88 "Hg10 mi
12:55 PM94 °FMostly cloudy.5 mph19%29.90 "Hg10 mi
Weather by CustomWeather, © 2015

See weather overviewHow to use our weather pages